2020/10/01 23:32:25+0000,-36.40,-49.14,-35.87,-49.17,-55.85,-56.88
2020/10/01 23:33:17+0000,-36.91,-48.96,-35.28,-49.96,-54.86,-56.71
2020/10/01 23:34:09+0000,-35.86,-48.67,-27.13,-48.83,-55.81,-57.44
2020/10/01 23:35:02+0000,-35.21,-49.22,-26.44,-48.46,-55.05,-57.08
2020/10/01 23:35:54+0000,-35.94,-49.20,-35.30,-48.69,-55.66,-56.91
2020/10/01 23:36:46+0000,-35.44,-48.46,-35.36,-48.94,-55.65,-57.26
2020/10/01 23:37:38+0000,-35.73,-49.19,-36.31,-48.68,-55.53,-57.05
2020/10/01 23:38:30+0000,-35.39,-48.71,-35.63,-49.27,-54.79,-57.51
2020/10/01 23:39:22+0000,-35.20,-49.93,-35.90,-49.17,-55.47,-56.91
2020/10/01 23:40:14+0000,-35.53,-49.37,-36.15,-49.25,-55.02,-57.40
2020/10/01 23:41:14+0000,-35.60,-48.13,-35.39,-48.87,-55.29,-57.28
2020/10/01 23:42:06+0000,-35.38,-48.61,-26.56,-49.26,-55.87,-57.13
2020/10/01 23:42:58+0000,-35.73,-49.24,-36.62,-48.17,-54.98,-57.33
2020/10/01 23:43:50+0000,-35.24,-48.81,-35.84,-48.36,-55.49,-56.63
2020/10/01 23:44:42+0000,-35.53,-48.42,-26.80,-49.66,-54.69,-57.36
2020/10/01 23:45:34+0000,-35.15,-48.62,-27.16,-48.47,-55.21,-57.49
2020/10/01 23:46:26+0000,-35.25,-49.01,-35.62,-48.57,-55.01,-57.33
2020/10/01 23:47:18+0000,-35.44,-48.06,-35.94,-49.46,-55.52,-57.07
2020/10/01 23:48:10+0000,-35.63,-48.09,-27.25,-49.41,-55.36,-56.75
2020/10/01 23:49:02+0000,-36.40,-49.19,-26.40,-49.19,-54.78,-56.44
2020/10/01 23:49:55+0000,-35.64,-49.33,-35.65,-49.60,-55.44,-57.14
2020/10/01 23:50:47+0000,-35.67,-47.94,-36.07,-48.98,-55.51,-56.59
2020/10/01 23:51:46+0000,-35.97,-48.28,-35.86,-49.28,-55.19,-56.68
2020/10/01 23:52:38+0000,-35.11,-48.60,-36.08,-48.97,-55.80,-56.49
2020/10/01 23:53:30+0000,-36.01,-48.86,-36.03,-49.37,-55.92,-56.86
2020/10/01 23:54:22+0000,-35.79,-48.33,-36.40,-48.94,-55.46,-56.68
2020/10/01 23:55:14+0000,-35.47,-48.44,-36.17,-49.17,-55.43,-58.07
2020/10/01 23:56:06+0000,-35.40,-48.59,-35.12,-49.53,-55.68,-57.48
2020/10/01 23:56:58+0000,-35.35,-48.36,-36.90,-48.87,-55.35,-57.19
2020/10/01 23:57:50+0000,-35.89,-49.05,-36.63,-48.95,-55.47,-57.48
2020/10/01 23:58:42+0000,-36.09,-48.35,-36.39,-50.23,-55.52,-56.95
2020/10/01 23:59:34+0000,-35.31,-48.09,-36.45,-49.57,-55.65,-57.55
2020/10/02 00:00:26+0000,-35.46,-47.88,-35.66,-49.84,-55.30,-56.98
2020/10/02 00:01:30+0000,-35.74,-49.01,-35.00,-49.25,-55.18,-56.96
2020/10/02 00:02:22+0000,-35.35,-48.78,-35.00,-48.81,-55.17,-57.32
2020/10/02 00:03:14+0000,-36.25,-48.33,-34.87,-49.44,-55.18,-57.11
2020/10/02 00:04:06+0000,-35.59,-48.60,-35.00,-50.24,-55.68,-57.23
2020/10/02 00:04:58+0000,-35.35,-48.77,-35.15,-48.65,-55.23,-57.18
2020/10/02 00:05:50+0000,-35.74,-47.99,-35.93,-49.37,-54.97,-56.81
2020/10/02 00:06:42+0000,-35.17,-47.58,-35.80,-48.82,-55.51,-56.65
2020/10/02 00:07:34+0000,-34.83,-48.16,-37.19,-48.25,-55.67,-56.86
2020/10/02 00:08:26+0000,-34.93,-48.74,-35.90,-49.17,-55.52,-57.33
2020/10/02 00:09:18+0000,-35.38,-48.13,-36.04,-48.93,-54.98,-57.12
2020/10/02 00:10:10+0000,-35.61,-46.84,-35.73,-49.49,-55.34,-57.22
2020/10/02 00:11:10+0000,-34.95,-48.28,-35.58,-48.46,-55.56,-56.75
2020/10/02 00:12:02+0000,-35.25,-48.03,-36.03,-47.56,-55.23,-56.77
2020/10/02 00:12:54+0000,-35.80,-48.32,-36.53,-47.65,-55.15,-56.60
2020/10/02 00:13:46+0000,-35.81,-47.79,-35.67,-48.94,-55.05,-56.71
2020/10/02 00:14:38+0000,-35.67,-47.87,-27.16,-49.17,-55.17,-56.60
2020/10/02 00:15:30+0000,-35.57,-47.53,-26.64,-48.93,-55.35,-56.76
2020/10/02 00:16:22+0000,-35.88,-48.75,-36.84,-49.48,-55.45,-56.68
2020/10/02 00:17:14+0000,-35.72,-47.81,-35.75,-48.38,-55.99,-56.55
2020/10/02 00:18:06+0000,-35.02,-49.14,-27.05,-48.45,-55.72,-56.96
2020/10/02 00:18:58+0000,-35.36,-47.04,-37.33,-48.91,-55.64,-56.26
2020/10/02 00:19:50+0000,-35.55,-48.08,-35.75,-48.76,-55.37,-56.45
2020/10/02 00:20:42+0000,-35.19,-47.87,-35.37,-48.24,-55.52,-56.67
2020/10/02 00:21:49+0000,-35.06,-48.44,-35.86,-49.12,-55.57,-56.61
2020/10/02 00:22:41+0000,-35.58,-47.08,-32.82,-48.58,-55.89,-56.76
2020/10/02 00:23:33+0000,-35.64,-48.29,-27.14,-48.59,-55.65,-56.72
2020/10/02 00:24:25+0000,-35.63,-48.29,-35.58,-49.13,-55.46,-57.36
2020/10/02 00:25:18+0000,-34.90,-47.82,-35.82,-48.21,-55.55,-56.56
2020/10/02 00:26:10+0000,-34.45,-48.58,-26.89,-49.13,-55.00,-56.53
2020/10/02 00:27:02+0000,-34.62,-46.92,-26.74,-48.91,-55.17,-56.44
2020/10/02 00:27:54+0000,-35.11,-48.03,-36.47,-48.87,-54.94,-56.80
2020/10/02 00:28:46+0000,-35.38,-47.77,-35.84,-49.07,-55.32,-56.86
2020/10/02 00:29:38+0000,-34.08,-47.87,-27.13,-49.44,-54.63,-56.20
2020/10/02 00:30:30+0000,-36.74,-48.33,-26.79,-49.74,-55.14,-57.36
2020/10/02 00:31:30+0000,-36.69,-49.01,-26.67,-49.54,-54.82,-56.49
2020/10/02 00:32:22+0000,-36.95,-49.75,-37.29,-48.79,-54.89,-56.69
2020/10/02 00:33:14+0000,-36.35,-48.77,-37.63,-49.83,-55.36,-57.16
2020/10/02 00:34:06+0000,-36.37,-49.71,-27.17,-49.80,-55.00,-56.71
2020/10/02 00:34:58+0000,-36.97,-48.81,-36.89,-50.08,-55.28,-56.61
2020/10/02 00:35:50+0000,-36.89,-48.91,-38.06,-49.12,-55.77,-56.64
2020/10/02 00:36:42+0000,-37.57,-48.38,-38.08,-49.47,-54.66,-56.95
2020/10/02 00:37:34+0000,-36.50,-48.34,-26.88,-49.69,-55.26,-57.44
2020/10/02 00:38:26+0000,-37.31,-48.35,-37.61,-49.07,-55.09,-56.63
2020/10/02 00:39:18+0000,-37.24,-48.44,-37.14,-49.55,-55.66,-56.60
2020/10/02 00:40:10+0000,-36.61,-49.01,-26.85,-49.47,-55.33,-56.60
2020/10/02 00:41:09+0000,-36.80,-47.98,-27.44,-49.18,-55.11,-56.73
2020/10/02 00:42:01+0000,-36.88,-48.95,-26.85,-48.00,-55.23,-57.48
2020/10/02 00:42:53+0000,-37.22,-48.04,-37.79,-48.73,-55.15,-57.20
2020/10/02 00:43:45+0000,-35.84,-49.29,-38.02,-49.06,-55.37,-56.66
2020/10/02 00:44:37+0000,-36.73,-49.33,-36.75,-48.49,-55.43,-56.80
2020/10/02 00:45:30+0000,-36.85,-48.68,-37.06,-49.30,-55.94,-56.74
2020/10/02 00:46:22+0000,-36.84,-49.58,-36.75,-48.80,-55.33,-57.02
2020/10/02 00:47:14+0000,-38.01,-48.36,-36.67,-47.95,-54.83,-57.15
2020/10/02 00:48:06+0000,-37.43,-50.35,-37.06,-48.80,-55.43,-57.24
2020/10/02 00:48:58+0000,-37.10,-49.15,-37.46,-49.23,-55.08,-56.81
2020/10/02 00:49:50+0000,-37.19,-48.99,-36.47,-49.42,-55.23,-57.13
2020/10/02 00:50:42+0000,-37.59,-47.68,-38.35,-48.69,-55.26,-57.24
2020/10/02 00:51:41+0000,-37.99,-48.03,-38.26,-48.70,-55.27,-56.96
2020/10/02 00:52:33+0000,-37.90,-48.35,-38.50,-48.40,-55.01,-56.76
2020/10/02 00:53:25+0000,-37.38,-49.19,-37.14,-45.93,-54.87,-56.35
2020/10/02 00:54:17+0000,-37.92,-48.30,-36.84,-49.00,-54.87,-56.63
2020/10/02 00:55:09+0000,-38.58,-48.14,-36.60,-48.37,-54.93,-56.58
2020/10/02 00:56:01+0000,-38.82,-48.83,-36.75,-48.09,-54.54,-56.79
2020/10/02 00:56:53+0000,-38.93,-49.47,-36.71,-48.71,-55.57,-56.89
2020/10/02 00:57:45+0000,-38.48,-47.08,-36.33,-48.73,-55.21,-56.47
2020/10/02 00:58:37+0000,-39.26,-49.18,-38.47,-49.94,-55.19,-56.67
2020/10/02 00:59:29+0000,-39.12,-48.60,-37.36,-47.98,-54.97,-56.50
2020/10/02 01:00:22+0000,-38.40,-50.20,-37.65,-49.27,-55.28,-56.92
2020/10/02 01:01:25+0000,-38.47,-48.47,-37.31,-48.13,-55.07,-56.85
2020/10/02 01:02:17+0000,-39.24,-48.33,-36.30,-48.95,-55.12,-56.93
2020/10/02 01:03:09+0000,-39.06,-48.03,-37.60,-48.59,-54.99,-57.01
2020/10/02 01:04:01+0000,-39.00,-48.10,-37.14,-48.82,-54.91,-56.56
2020/10/02 01:04:53+0000,-39.43,-48.35,-37.95,-48.86,-55.30,-56.72
2020/10/02 01:05:45+0000,-38.29,-48.09,-36.75,-47.46,-54.76,-56.30
2020/10/02 01:06:37+0000,-38.51,-48.79,-35.98,-48.39,-55.23,-57.19
2020/10/02 01:07:29+0000,-37.04,-48.52,-37.12,-48.42,-55.01,-57.15
2020/10/02 01:08:21+0000,-38.51,-49.34,-37.51,-49.12,-54.93,-57.17
2020/10/02 01:09:13+0000,-39.14,-48.73,-36.54,-50.13,-54.85,-56.38
2020/10/02 01:10:05+0000,-38.89,-49.36,-37.65,-48.89,-54.58,-56.87
2020/10/02 01:11:04+0000,-39.19,-49.70,-38.37,-49.88,-54.78,-56.47
2020/10/02 01:11:56+0000,-32.26,-42.27,-38.23,-48.74,-55.05,-55.23
2020/10/02 01:12:48+0000,-39.76,-48.10,-37.74,-49.83,-55.02,-56.98
2020/10/02 01:13:40+0000,-38.75,-48.62,-37.41,-49.43,-54.87,-56.69
2020/10/02 01:14:33+0000,-38.60,-47.47,-38.29,-49.41,-55.96,-56.68
2020/10/02 01:15:25+0000,-38.98,-49.30,-38.20,-49.82,-55.65,-56.70
2020/10/02 01:16:17+0000,-39.22,-48.06,-36.82,-49.38,-55.16,-56.86
2020/10/02 01:17:09+0000,-39.20,-48.81,-36.07,-48.65,-55.32,-56.61
2020/10/02 01:18:01+0000,-40.01,-48.67,-36.15,-49.30,-55.68,-56.83
2020/10/02 01:18:53+0000,-39.44,-47.61,-36.65,-49.98,-54.69,-57.10
2020/10/02 01:19:45+0000,-39.11,-47.63,-36.30,-48.71,-55.62,-56.66
2020/10/02 01:20:37+0000,-39.14,-48.54,-36.97,-49.19,-54.82,-56.88
2020/10/02 01:21:40+0000,-38.90,-48.02,-36.52,-48.37,-54.97,-56.77
2020/10/02 01:22:32+0000,-39.37,-48.06,-36.55,-49.27,-55.13,-56.70
2020/10/02 01:23:24+0000,-38.86,-47.02,-36.33,-48.96,-55.41,-56.65
2020/10/02 01:24:16+0000,-38.06,-46.66,-37.44,-48.31,-54.41,-56.85
2020/10/02 01:25:08+0000,-38.12,-48.39,-36.53,-49.25,-55.36,-56.79
2020/10/02 01:26:00+0000,-38.32,-49.10,-36.50,-48.83,-55.23,-56.71
2020/10/02 01:26:53+0000,-38.17,-49.69,-36.91,-48.66,-55.18,-56.89
2020/10/02 01:27:45+0000,-37.89,-48.02,-38.78,-48.76,-55.26,-57.05
2020/10/02 01:28:37+0000,-38.62,-50.16,-36.73,-47.39,-55.15,-56.78
2020/10/02 01:29:29+0000,-38.17,-49.35,-36.73,-48.15,-54.69,-56.94
2020/10/02 01:30:21+0000,-38.67,-50.29,-36.03,-47.41,-54.93,-57.07
2020/10/02 01:31:20+0000,-38.73,-49.25,-37.14,-47.97,-54.60,-56.93
2020/10/02 01:32:12+0000,-38.50,-47.00,-38.53,-48.07,-55.02,-57.10
2020/10/02 01:33:04+0000,-39.13,-49.65,-37.56,-49.28,-55.96,-57.24
2020/10/02 01:33:56+0000,-38.64,-49.16,-38.28,-48.81,-55.54,-57.12
2020/10/02 01:34:48+0000,-39.44,-48.12,-37.80,-48.42,-55.09,-56.73
2020/10/02 01:35:40+0000,-39.02,-48.53,-36.76,-48.80,-56.21,-56.65
2020/10/02 01:36:32+0000,-38.95,-48.71,-36.88,-48.70,-54.91,-56.77
2020/10/02 01:37:25+0000,-38.83,-48.06,-37.96,-49.09,-55.26,-56.90
2020/10/02 01:38:17+0000,-38.44,-48.64,-37.81,-48.74,-55.06,-56.69
2020/10/02 01:39:09+0000,-38.40,-48.63,-37.93,-48.79,-55.21,-57.50
2020/10/02 01:40:01+0000,-38.54,-47.32,-38.52,-49.65,-54.87,-56.80
2020/10/02 01:41:00+0000,-38.95,-48.49,-37.34,-48.55,-55.31,-56.76
2020/10/02 01:41:52+0000,-38.11,-49.79,-37.97,-49.09,-54.84,-56.74
2020/10/02 01:42:44+0000,-38.37,-48.27,-37.51,-48.14,-55.22,-56.50
2020/10/02 01:43:36+0000,-38.44,-49.69,-37.96,-48.56,-56.02,-56.49
2020/10/02 01:44:28+0000,-37.97,-47.78,-36.69,-49.30,-55.03,-56.95
2020/10/02 01:45:20+0000,-38.33,-46.95,-38.43,-48.70,-54.81,-56.36
2020/10/02 01:46:12+0000,-38.04,-48.01,-38.05,-48.79,-55.13,-57.30
2020/10/02 01:47:04+0000,-38.75,-47.98,-38.48,-48.45,-55.14,-57.12
2020/10/02 01:47:56+0000,-37.36,-46.89,-38.88,-49.78,-55.14,-56.56
2020/10/02 01:48:48+0000,-38.19,-48.01,-38.28,-48.07,-55.16,-56.75
2020/10/02 01:49:40+0000,-38.12,-47.13,-38.12,-46.21,-55.57,-55.90
2020/10/02 01:50:32+0000,-38.53,-47.44,-37.88,-47.89,-55.20,-55.74
2020/10/02 01:51:32+0000,-37.95,-46.44,-36.40,-48.59,-55.75,-56.73
2020/10/02 01:52:24+0000,-37.91,-46.75,-39.01,-49.65,-55.37,-56.19
2020/10/02 01:53:16+0000,-38.50,-47.45,-38.79,-48.95,-55.43,-56.41
2020/10/02 01:54:08+0000,-38.52,-48.72,-38.72,-48.95,-54.51,-56.57
2020/10/02 01:55:00+0000,-38.14,-47.38,-39.83,-48.72,-54.85,-56.64
2020/10/02 01:55:52+0000,-38.81,-49.07,-37.69,-49.15,-55.03,-56.02
2020/10/02 01:56:44+0000,-37.98,-46.54,-37.07,-48.85,-54.60,-56.19
2020/10/02 01:57:36+0000,-38.31,-48.93,-36.99,-48.41,-54.95,-56.28
2020/10/02 01:58:28+0000,-37.99,-46.89,-38.23,-49.21,-54.89,-56.19
2020/10/02 01:59:20+0000,-38.59,-46.72,-37.76,-49.06,-55.47,-56.84
2020/10/02 02:00:13+0000,-38.69,-46.43,-37.67,-47.60,-54.64,-56.33
2020/10/02 02:01:13+0000,-38.15,-46.57,-37.88,-47.41,-55.12,-56.30
2020/10/02 02:02:05+0000,-38.71,-49.67,-37.22,-47.80,-55.40,-56.23
2020/10/02 02:02:57+0000,-37.80,-46.98,-37.76,-43.72,-55.03,-56.48
2020/10/02 02:03:49+0000,-36.88,-47.41,-37.91,-47.24,-55.51,-56.50
2020/10/02 02:04:41+0000,-38.23,-46.97,-37.28,-49.17,-55.11,-56.13
2020/10/02 02:05:33+0000,-38.79,-46.93,-37.46,-48.26,-54.66,-56.25
2020/10/02 02:06:25+0000,-36.38,-46.43,-37.24,-48.06,-54.98,-56.62
2020/10/02 02:07:17+0000,-39.03,-46.72,-37.50,-47.26,-55.63,-56.47
2020/10/02 02:08:09+0000,-36.67,-47.11,-37.60,-48.01,-54.65,-56.69
2020/10/02 02:09:01+0000,-37.65,-47.29,-37.26,-48.67,-54.64,-56.20
2020/10/02 02:09:53+0000,-38.69,-46.76,-37.11,-47.62,-55.05,-56.67
2020/10/02 02:10:45+0000,-39.27,-46.67,-37.88,-47.87,-55.32,-56.33
2020/10/02 02:11:45+0000,-38.35,-47.00,-37.23,-46.99,-55.02,-56.28
2020/10/02 02:12:37+0000,-38.89,-47.40,-37.23,-47.99,-55.13,-56.66
2020/10/02 02:13:29+0000,-38.97,-45.89,-37.12,-48.54,-55.59,-56.88
2020/10/02 02:14:21+0000,-38.56,-48.37,-37.29,-48.34,-55.37,-56.35
2020/10/02 02:15:13+0000,-38.49,-47.18,-36.21,-47.64,-55.66,-56.36
2020/10/02 02:16:05+0000,-38.89,-47.99,-36.47,-48.14,-55.80,-56.26
2020/10/02 02:16:57+0000,-39.24,-45.49,-36.10,-48.98,-54.76,-56.84
2020/10/02 02:17:49+0000,-38.94,-47.81,-38.04,-49.18,-55.08,-56.59
2020/10/02 02:18:41+0000,-34.52,-47.39,-37.48,-48.88,-54.87,-56.17
2020/10/02 02:19:33+0000,-37.07,-46.61,-37.11,-48.46,-54.49,-56.37
2020/10/02 02:20:25+0000,-38.56,-46.12,-37.70,-48.15,-54.98,-56.63
2020/10/02 02:21:24+0000,-39.48,-45.84,-36.83,-48.37,-54.70,-56.67
2020/10/02 02:22:17+0000,-38.44,-45.68,-36.31,-48.21,-55.16,-56.35
2020/10/02 02:23:09+0000,-35.78,-46.60,-36.01,-49.05,-55.14,-56.11
2020/10/02 02:24:01+0000,-38.69,-46.43,-36.11,-47.91,-54.95,-56.05
2020/10/02 02:24:53+0000,-38.69,-45.85,-36.29,-48.19,-55.76,-56.33
2020/10/02 02:25:45+0000,-38.86,-47.33,-35.97,-48.60,-55.20,-55.93
2020/10/02 02:26:37+0000,-35.71,-48.21,-35.09,-48.00,-55.04,-56.47
2020/10/02 02:27:29+0000,-39.00,-45.87,-35.66,-47.47,-54.47,-55.66
2020/10/02 02:28:21+0000,-38.63,-48.68,-36.65,-48.66,-54.30,-56.13
2020/10/02 02:29:13+0000,-38.04,-47.23,-36.93,-48.13,-55.41,-56.33
2020/10/02 02:30:05+0000,-38.13,-47.81,-36.17,-48.29,-54.46,-56.12
2020/10/02 02:31:07+0000,-37.38,-48.84,-37.89,-48.57,-55.34,-56.24
2020/10/02 02:31:59+0000,-38.09,-46.05,-37.17,-48.61,-55.30,-56.19
2020/10/02 02:32:51+0000,-38.33,-47.93,-37.32,-48.49,-55.38,-56.47
2020/10/02 02:33:43+0000,-36.50,-47.23,-36.70,-49.18,-55.44,-56.24
2020/10/02 02:34:35+0000,-37.71,-46.16,-36.36,-48.24,-55.08,-55.81
2020/10/02 02:35:27+0000,-37.64,-46.21,-36.32,-47.09,-55.00,-55.39
2020/10/02 02:36:19+0000,-38.23,-47.50,-36.58,-48.58,-55.36,-56.57
2020/10/02 02:37:11+0000,-38.95,-46.79,-37.09,-48.65,-54.85,-56.26
2020/10/02 02:38:03+0000,-38.26,-46.15,-37.18,-47.94,-54.92,-56.64
2020/10/02 02:38:55+0000,-37.89,-44.72,-37.10,-48.06,-55.32,-56.89
2020/10/02 02:39:48+0000,-37.87,-47.86,-37.55,-48.47,-55.04,-56.42
2020/10/02 02:40:40+0000,-38.52,-47.17,-37.43,-48.64,-55.63,-56.73
2020/10/02 02:41:39+0000,-37.69,-47.09,-38.52,-49.11,-54.77,-56.18
2020/10/02 02:42:31+0000,-38.28,-46.71,-37.21,-48.31,-54.76,-56.71
2020/10/02 02:43:23+0000,-39.22,-47.52,-37.30,-49.04,-55.15,-55.78
2020/10/02 02:44:15+0000,-38.96,-48.45,-37.44,-48.23,-55.12,-55.93
2020/10/02 02:45:07+0000,-38.53,-48.43,-36.93,-48.93,-55.36,-55.73
2020/10/02 02:45:59+0000,-37.94,-46.82,-37.40,-47.29,-55.23,-55.92
2020/10/02 02:46:51+0000,-38.17,-48.42,-37.22,-48.96,-54.63,-55.94
2020/10/02 02:47:43+0000,-38.01,-44.47,-36.93,-48.63,-55.18,-55.33
2020/10/02 02:48:35+0000,-36.99,-47.10,-37.34,-49.55,-54.77,-55.13
2020/10/02 02:49:27+0000,-37.87,-47.51,-36.86,-48.94,-55.50,-55.79
2020/10/02 02:50:19+0000,-35.19,-43.81,-37.18,-48.37,-55.17,-55.38
2020/10/02 02:51:20+0000,-35.30,-44.37,-37.41,-49.29,-55.41,-56.14
2020/10/02 02:52:12+0000,-37.62,-44.48,-37.66,-49.43,-55.21,-56.07
2020/10/02 02:53:04+0000,-37.93,-47.43,-37.60,-49.20,-54.78,-56.49
2020/10/02 02:53:57+0000,-37.61,-48.35,-37.76,-49.74,-55.10,-55.66
2020/10/02 02:54:49+0000,-37.87,-44.01,-37.23,-49.95,-55.01,-55.73
2020/10/02 02:55:41+0000,-38.07,-46.35,-38.10,-49.41,-55.54,-56.18
2020/10/02 02:56:33+0000,-38.29,-47.92,-37.60,-50.16,-55.46,-55.85
2020/10/02 02:57:25+0000,-35.13,-47.64,-37.50,-49.42,-54.78,-56.01
2020/10/02 02:58:17+0000,-35.23,-47.85,-37.51,-49.58,-54.88,-55.74
2020/10/02 02:59:09+0000,-37.64,-47.75,-37.18,-50.04,-55.50,-55.45
2020/10/02 03:00:01+0000,-39.53,-47.31,-37.72,-49.66,-55.74,-55.91
2020/10/02 03:01:01+0000,-38.47,-48.45,-37.62,-49.97,-55.43,-56.17
2020/10/02 03:01:53+0000,-37.79,-48.10,-37.73,-49.60,-55.92,-55.42
2020/10/02 03:02:45+0000,-39.27,-47.86,-36.85,-48.52,-54.91,-55.38
2020/10/02 03:03:37+0000,-39.62,-48.34,-36.83,-49.58,-54.81,-56.06
2020/10/02 03:04:29+0000,-39.66,-49.00,-36.88,-49.62,-55.23,-55.14
2020/10/02 03:05:21+0000,-37.70,-49.41,-37.17,-48.92,-55.16,-55.54
2020/10/02 03:06:13+0000,-35.08,-48.85,-37.57,-48.62,-55.02,-55.32
2020/10/02 03:07:05+0000,-34.55,-49.49,-35.76,-49.40,-55.31,-55.72
2020/10/02 03:07:57+0000,-39.78,-49.56,-36.64,-49.60,-55.07,-55.24
2020/10/02 03:08:49+0000,-38.49,-48.86,-37.22,-49.69,-54.45,-54.90
2020/10/02 03:09:41+0000,-38.65,-49.49,-37.55,-49.20,-55.56,-55.64
2020/10/02 03:10:33+0000,-39.15,-49.21,-38.13,-49.30,-55.15,-55.48
2020/10/02 03:11:37+0000,-38.93,-49.16,-37.19,-49.62,-54.88,-56.15
2020/10/02 03:12:29+0000,-39.07,-48.46,-37.47,-50.18,-55.20,-55.40
2020/10/02 03:13:21+0000,-39.40,-49.65,-37.90,-49.41,-55.02,-55.34
2020/10/02 03:14:13+0000,-38.80,-49.95,-37.11,-49.66,-54.72,-55.75
2020/10/02 03:15:05+0000,-38.74,-50.29,-37.59,-50.24,-54.87,-56.68
2020/10/02 03:15:58+0000,-38.48,-50.03,-38.64,-48.84,-55.15,-57.04
2020/10/02 03:16:50+0000,-38.48,-49.62,-38.07,-49.20,-55.22,-56.38
2020/10/02 03:17:42+0000,-39.75,-49.55,-37.39,-49.56,-55.22,-56.16
2020/10/02 03:18:34+0000,-39.46,-48.28,-36.87,-49.45,-55.55,-56.75
2020/10/02 03:19:26+0000,-39.09,-49.24,-37.04,-49.28,-55.14,-56.40
2020/10/02 03:20:18+0000,-38.00,-47.27,-37.01,-48.95,-54.91,-56.38
2020/10/02 03:21:15+0000,-39.61,-49.17,-36.39,-49.22,-55.10,-56.08
2020/10/02 03:22:07+0000,-39.31,-47.56,-36.18,-49.62,-55.66,-56.41
2020/10/02 03:22:59+0000,-39.03,-45.64,-37.20,-48.76,-54.63,-56.45
2020/10/02 03:23:51+0000,-39.16,-46.51,-36.94,-49.26,-55.20,-56.54
2020/10/02 03:24:43+0000,-37.93,-47.02,-37.24,-50.02,-55.60,-56.85
2020/10/02 03:25:36+0000,-38.36,-46.59,-37.29,-49.23,-55.38,-56.47
2020/10/02 03:26:28+0000,-38.95,-45.86,-37.45,-49.82,-55.55,-55.62
2020/10/02 03:27:20+0000,-38.91,-46.13,-36.94,-50.36,-55.22,-56.41
2020/10/02 03:28:12+0000,-38.71,-45.57,-36.92,-49.54,-54.65,-56.14
2020/10/02 03:29:04+0000,-38.65,-45.71,-36.82,-49.64,-55.21,-56.55
2020/10/02 03:29:56+0000,-38.65,-47.65,-37.37,-49.62,-55.08,-56.17
2020/10/02 03:30:48+0000,-39.07,-45.29,-37.11,-49.69,-55.81,-55.98
2020/10/02 03:31:52+0000,-39.20,-46.04,-37.23,-49.11,-55.24,-56.46
2020/10/02 03:32:44+0000,-39.27,-45.57,-36.40,-49.62,-55.41,-56.12
2020/10/02 03:33:36+0000,-38.59,-50.04,-37.21,-48.96,-55.78,-56.45
2020/10/02 03:34:28+0000,-38.34,-46.91,-35.49,-48.82,-55.24,-56.43
2020/10/02 03:35:20+0000,-38.47,-47.52,-36.49,-49.36,-55.42,-55.94
2020/10/02 03:36:12+0000,-39.02,-45.01,-35.78,-49.27,-56.01,-56.20
2020/10/02 03:37:04+0000,-38.52,-45.72,-37.46,-49.27,-55.04,-56.42
2020/10/02 03:37:56+0000,-39.15,-46.35,-37.13,-49.41,-55.33,-56.07
2020/10/02 03:38:48+0000,-38.98,-46.01,-37.25,-48.89,-55.09,-55.30
2020/10/02 03:39:40+0000,-38.74,-47.34,-36.37,-49.33,-55.35,-56.05
2020/10/02 03:40:33+0000,-38.50,-45.11,-37.18,-49.50,-55.83,-55.83
2020/10/02 03:41:32+0000,-37.99,-45.68,-37.25,-49.36,-55.50,-55.47
2020/10/02 03:42:24+0000,-38.31,-46.12,-37.08,-49.41,-55.77,-55.81
2020/10/02 03:43:16+0000,-39.81,-45.46,-36.35,-49.67,-55.44,-56.27
2020/10/02 03:44:08+0000,-38.40,-46.51,-36.80,-49.93,-55.63,-56.15
2020/10/02 03:45:00+0000,-38.62,-46.32,-36.84,-49.08,-55.29,-55.77
2020/10/02 03:45:52+0000,-38.27,-46.08,-36.97,-49.09,-56.00,-56.08
2020/10/02 03:46:44+0000,-39.02,-45.24,-36.39,-49.20,-54.95,-55.62
2020/10/02 03:47:36+0000,-40.25,-50.73,-36.02,-48.58,-55.49,-56.10
2020/10/02 03:48:28+0000,-38.51,-47.52,-35.50,-48.88,-55.35,-56.32
2020/10/02 03:49:20+0000,-39.07,-45.70,-36.99,-48.42,-55.61,-55.80
2020/10/02 03:50:13+0000,-39.51,-45.70,-37.44,-49.52,-55.73,-55.72
2020/10/02 03:51:11+0000,-39.44,-46.58,-36.99,-49.10,-55.34,-56.19
2020/10/02 03:52:04+0000,-39.90,-46.03,-36.58,-49.55,-55.85,-56.21
2020/10/02 03:52:56+0000,-39.63,-46.48,-36.57,-50.09,-55.67,-56.53
2020/10/02 03:53:48+0000,-39.35,-46.69,-35.78,-49.19,-54.85,-55.96
2020/10/02 03:54:40+0000,-39.84,-47.40,-36.66,-49.54,-55.57,-55.79
2020/10/02 03:55:32+0000,-39.54,-47.68,-36.70,-49.33,-55.16,-56.06
2020/10/02 03:56:24+0000,-40.26,-46.80,-36.15,-49.46,-55.59,-56.46
2020/10/02 03:57:16+0000,-39.84,-47.55,-35.03,-50.03,-55.04,-56.49
2020/10/02 03:58:08+0000,-39.67,-47.06,-35.00,-49.17,-55.49,-56.26
2020/10/02 03:59:00+0000,-40.06,-47.81,-35.29,-48.93,-55.40,-55.67
2020/10/02 03:59:52+0000,-39.53,-47.63,-35.42,-49.04,-55.52,-56.69
2020/10/02 04:00:44+0000,-38.69,-45.26,-35.81,-47.13,-56.17,-55.93
2020/10/02 04:01:44+0000,-39.68,-46.33,-35.21,-48.10,-55.18,-55.69
2020/10/02 04:02:36+0000,-38.99,-46.93,-35.71,-47.88,-55.66,-56.24
2020/10/02 04:03:28+0000,-39.96,-47.18,-35.59,-48.54,-55.27,-56.00
2020/10/02 04:04:20+0000,-39.51,-47.62,-35.18,-48.59,-54.78,-56.10
2020/10/02 04:05:12+0000,-38.66,-46.27,-36.23,-48.23,-55.76,-56.15
2020/10/02 04:06:04+0000,-38.90,-47.12,-35.77,-48.70,-55.86,-55.95
2020/10/02 04:06:56+0000,-39.68,-47.26,-35.53,-48.94,-55.29,-56.72
2020/10/02 04:07:48+0000,-38.91,-46.95,-36.30,-48.06,-55.16,-55.85
2020/10/02 04:08:40+0000,-40.19,-47.61,-36.35,-48.06,-55.78,-56.03
2020/10/02 04:09:32+0000,-40.00,-46.75,-35.17,-48.07,-54.84,-55.89
2020/10/02 04:10:24+0000,-39.81,-46.50,-35.60,-48.15,-55.51,-55.89
2020/10/02 04:11:24+0000,-39.79,-46.73,-36.70,-48.54,-55.15,-56.03
2020/10/02 04:12:16+0000,-39.69,-47.07,-35.03,-48.15,-55.10,-56.03
2020/10/02 04:13:08+0000,-40.38,-47.71,-35.08,-48.71,-55.52,-56.04
2020/10/02 04:14:00+0000,-40.34,-47.53,-34.89,-48.56,-56.00,-55.72
2020/10/02 04:14:52+0000,-39.86,-47.98,-35.29,-48.17,-55.90,-55.76
2020/10/02 04:15:44+0000,-40.42,-47.42,-35.51,-48.13,-55.45,-56.23
2020/10/02 04:16:36+0000,-40.29,-47.91,-35.50,-46.33,-55.61,-55.44
2020/10/02 04:17:28+0000,-40.45,-47.86,-35.62,-47.46,-55.92,-55.97
2020/10/02 04:18:20+0000,-39.61,-47.38,-35.56,-48.10,-55.41,-55.98
2020/10/02 04:19:12+0000,-40.10,-47.35,-35.25,-47.71,-55.77,-55.93
2020/10/02 04:20:04+0000,-39.84,-47.24,-35.32,-46.49,-55.46,-56.17
2020/10/02 04:21:03+0000,-40.27,-47.52,-34.91,-47.28,-54.94,-55.96
2020/10/02 04:21:55+0000,-40.04,-47.15,-35.23,-47.74,-56.12,-55.25
2020/10/02 04:22:48+0000,-39.81,-47.20,-35.68,-46.44,-55.90,-55.77
2020/10/02 04:23:40+0000,-40.44,-47.39,-35.59,-48.07,-55.36,-56.07
2020/10/02 04:24:32+0000,-40.35,-47.09,-34.81,-47.26,-55.33,-55.92
2020/10/02 04:25:24+0000,-39.16,-46.48,-35.01,-48.31,-55.54,-55.86
2020/10/02 04:26:16+0000,-39.53,-47.06,-34.77,-47.81,-55.67,-55.80
2020/10/02 04:27:08+0000,-40.00,-47.54,-35.12,-47.95,-55.80,-55.86
2020/10/02 04:28:00+0000,-40.82,-47.35,-35.10,-48.52,-55.51,-56.42
2020/10/02 04:28:52+0000,-40.86,-47.64,-35.02,-48.38,-55.67,-55.59
2020/10/02 04:29:44+0000,-40.69,-47.92,-34.81,-49.25,-55.73,-55.26
2020/10/02 04:30:36+0000,-40.25,-48.04,-35.08,-48.02,-55.31,-55.85
2020/10/02 04:31:36+0000,-40.05,-48.13,-35.71,-48.76,-55.70,-55.90
2020/10/02 04:32:28+0000,-39.98,-48.12,-35.57,-48.40,-55.70,-56.01
2020/10/02 04:33:20+0000,-39.53,-48.54,-35.10,-48.08,-55.56,-55.79
2020/10/02 04:34:12+0000,-40.42,-47.62,-35.05,-48.15,-55.86,-56.12
2020/10/02 04:35:04+0000,-40.23,-47.77,-35.32,-48.13,-55.89,-55.55
2020/10/02 04:35:57+0000,-38.70,-48.12,-36.06,-49.22,-55.84,-56.25
2020/10/02 04:36:49+0000,-38.55,-46.87,-35.34,-48.92,-55.79,-55.89
2020/10/02 04:37:41+0000,-39.33,-47.07,-35.82,-48.46,-55.56,-55.66
2020/10/02 04:38:33+0000,-40.29,-47.67,-35.91,-48.55,-55.33,-56.28
2020/10/02 04:39:25+0000,-39.63,-47.02,-35.68,-48.18,-55.76,-55.97
2020/10/02 04:40:17+0000,-40.11,-47.33,-35.68,-47.61,-55.91,-55.51
2020/10/02 04:41:16+0000,-40.68,-47.42,-35.17,-48.62,-54.89,-55.58
2020/10/02 04:42:08+0000,-39.69,-49.49,-34.81,-48.44,-55.61,-55.89
2020/10/02 04:43:00+0000,-39.54,-50.09,-35.87,-48.82,-55.62,-56.01
2020/10/02 04:43:52+0000,-39.58,-48.21,-35.23,-48.22,-56.13,-55.58
2020/10/02 04:44:44+0000,-39.73,-46.98,-35.78,-48.03,-55.53,-56.10
2020/10/02 04:45:36+0000,-38.36,-47.79,-35.50,-49.12,-55.12,-55.74
2020/10/02 04:46:29+0000,-40.26,-47.20,-35.39,-47.38,-55.23,-56.23